OBJECT BA (43806 NORAD) Tracking and Keplerian Element Data

This shows tracking and keplerian element data for the satellite.

Feedback or suggestion? Click here.




ElementValue
Catalog43806
NameOBJECT BA
Epoch Orbit643
Epoch Day17.85790108
Epoch Year2019
RAAN91.5573
Inclination97.7606
Eccentricity0.001636
Argument of Perigee112.4757
Mean Anonmoly247.8198
Mean Motion14.95180255
Decay Rate-6E-08
L11 43806U 18099BA 19017.85790108 -.00000006 00000-0 47564-5 0 9992
L22 43806 97.7606 91.5573 0016360 112.4757 247.8198 14.95180255 6433

Live tracking and technical data element details for OBJECT BA (NORAD 43806). OBJECT BA can be tracked NOW for your location showing map with azimuth and elevation plus other details from your city location.

Track the satellite on the map from your city or location and see movement details for azimuth, elevation, latitude, longitude, range, height, and movement on the map or in text.







IsCatalogInMostPopularTable: catalog: 43806, numindb: 19
Update: records affected: 1



GetName: 43806 OBJECT BA

Hit Count: updated at: Wed, 23 Jan 2019 03:19:18 GMT